Flag for Germany Weather past 2 weeks in Biberach an der Riss, Baden-Württemberg, Germany

Now
68 °F

Scattered clouds.


Feels Like: 68 °F
Forecast: 43 / 69 °F
Wind: 8 mph from Southeast

Location: Laupheim Airport


UV Index: 3 (Moderate)

Visibility: N/A


Pressure: 30.04 "Hg

Humidity: 43%

Dew point: 45 °F

Location of Biberach an der RissLocation

Historic Weather in Biberach an der Riss

°F

Biberach an der Riss temperature yesterday

Maximum temperature yesterday: 68 °F (at 2:20 PM)
Minimum temperature yesterday: 41 °F (at 4:20 AM)
Average temperature yesterday: 55 °F

Past Weeks' High & Low Weather Summary

 TemperatureHumidityPressure
High68 °F (Apr 23, 2:20 PM)100% (Apr 11, 5:20 AM)30.33 "Hg (Apr 11, 5:20 AM)
Low28 °F (Apr 16, 6:20 AM)23% (Apr 17, 6:20 PM)29.62 "Hg (Apr 21, 5:20 AM)
Average48 °F68%30.01 "Hg
* Reported Apr 9 1:20 PM — Apr 24 1:20 PM, Biberach an der Riss, Weather by CustomWeather, © 2014

Note: Actual official high and low records may vary slightly from our data, if they occured in-between our weather recording intervals... More about our weather records

Advertising

Historic Weather Conditions — Data for Previous 24 hours

 ConditionsComfort  
Time TempWeatherWind HumidityBarometerVisibility
1:20 PM
Apr 24
66 °FScattered clouds.8 mph46%30.04 "HgN/A
12:20 PM64 °FPassing clouds.3 mph52%30.07 "HgN/A
11:20 AM63 °FPassing clouds.2 mph59%30.07 "HgN/A
10:20 AM57 °FPassing clouds.2 mph67%30.09 "HgN/A
9:20 AM54 °FPassing clouds.2 mph72%30.09 "HgN/A
8:20 AM50 °FCool.2 mph76%30.09 "HgN/A
7:20 AM45 °FQuite cool.2 mph87%30.09 "HgN/A
6:20 AM41 °FPassing clouds.3 mph93%30.07 "HgN/A
5:20 AM43 °FPassing clouds.1 mph87%30.07 "HgN/A
4:20 AM45 °FQuite cool.1 mph81%30.07 "HgN/A
3:20 AM46 °FCool.1 mph82%30.07 "HgN/A
2:20 AM46 °FCool.3 mph82%30.07 "HgN/A
1:20 AM48 °FPassing clouds.2 mph76%30.09 "HgN/A
12:20 AM52 °FPassing clouds.1 mph67%30.09 "HgN/A
11:20 PM
Apr 23
54 °FPassing clouds.5 mph63%30.09 "HgN/A
10:20 PM55 °FRefreshingly cool.3 mph59%30.09 "HgN/A
9:20 PM55 °FScattered clouds.3 mph63%30.07 "HgN/A
8:20 PM57 °FScattered clouds.6 mph63%30.07 "HgN/A
7:20 PM64 °FPassing clouds.10 mph49%30.04 "HgN/A
6:20 PM66 °FPassing clouds.9 mph46%30.04 "HgN/A
5:20 PM66 °FScattered clouds.10 mph49%30.04 "HgN/A
4:20 PM66 °FScattered clouds.10 mph46%30.04 "HgN/A
3:20 PM66 °FScattered clouds.7 mph40%30.07 "HgN/A
2:20 PM68 °FScattered clouds.8 mph40%30.07 "HgN/A
Weather by CustomWeather, © 2014

See weather overview